Terminal Aerodrome Forecast
Issued by NWS Wilmington, OH

Current Version | Previous Version | Graphics & Text | Print | Product List | Glossary On
Versions: 1 2 3 4 5 6 7 8 9 10 11 12 13 14 15 16 17 18 19 20 21 22 23 24 25 26 27 28 29 30
000
FTUS41 KILN 132332
TAFCVG
TAF
KCVG 132332Z 1400/1506 22015G24KT P6SM OVC060
     FM140300 27016G25KT P6SM -DZ OVC025
     FM140800 30010G20KT P6SM BKN025
     FM141200 33008KT P6SM BKN090
     FM141800 35004KT P6SM SCT250
     FM150200 VRB03KT P6SM BKN130=

USA.gov is the U.S. government's official web portal to all federal, state and local government web resources and services.